Location: Althorst
(53.6379°N, 10.7715°E)
Time: 11:38:55
(UTC+00:00)

Cosmos 614 Rocket - Pass Details

Date: 10 December 2019
Orbit: 733 x 764 km, 74.1° (Epoch: 23 January)

Event Time Altitude Azimuth Distance (km) Brightness Sun altitude
Rises 17:27:52 0° 186° (S) 3,165 7.4 -20.9°
Reaches altitude 10° 17:30:16 10° 181° (S) 2,242 6.5 -21.3°
Enters shadow 17:34:59 48° 114° (ESE) 957 4.1 -22.0°
